www.pogodaiklimat.ru

Погода и климат >> Архив погоды >> Россия >> Ростовская область >> Таганрог


ПОГОДА в Таганроге

АРХИВ ПОГОДЫ в Таганроге

Время (UTC), дата Ветер
(напр.,м/с)
 
Видим.   Явления Облачность Т
(С)
Тd
(С)
f
(%)
Тe
(С)
Тes
(С)
Комфортность P
(гПа)
Po
(гПа)
Тmin
(С)
Tmax
(С)
R
(мм)
R24
(мм)
S
(см)
18 14.10 З 2 20 км 5/4 600 м
[Sc Ac trans]
+11.7 +7.3 74 +11 +11 тепло 1013.8 1009.9
21 14.10 З 2 20 км слабый ливневой дождь 10/10 600 м
[Cb cap]
+10.2 +8.6 90 +9 +9 по сезону 1013.6 1009.7
00 15.10 СЗ 2 20 км {ливн. осадки} 9/9 600 м
[Cb cap]
+8.5 +6.7 88 +7 +7 по сезону 1014.0 1010.1
03 15.10 СЗ 2 20 км 9/8 600 м
[Sc Ac trans]
+7.4 +4.7 83 +5 +5 по сезону 1016.1 1012.1 +7.0 3
06 15.10 СЗ 2 20 км 4/3 300 м
[St Ci fib]
+8.7 +4.8 76 +7 +8 по сезону 1017.1 1013.2
09 15.10 З 3 20 км 8/6 600 м
[Cb cap Ac lent Ci fib]
+10.7 +2.1 55 +9 +11 по сезону 1016.4 1012.5
12 15.10 ЮЗ 6-13
{13}
20 км 9/6 600 м
[Cb cap As op]
+11.6 +6.5 71 +9 +9 прохладно 1013.8 1009.9
15 15.10 З 4-13
{15}
10 км дождь 10/10 300 м
[Frnb Ns]
+11.3 +10.1 92 +9 +9 по сезону 1010.0 1006.2 +11.7 3
18 15.10 З 3
{13}
10 км {дождь} 10/10 300 м
[St As op]
+12.7 +11.3 91 +11 +11 тепло 1007.6 1003.8
21 15.10 СЗ 4
{11}
20 км ясно +12.6 +7.1 69 +11 +11 тепло 1007.7 1003.9
00 16.10 СЗ 2 20 км ясно +10.5 +6.1 74 +9 +9 тепло 1008.7 1004.9
03 16.10 СЗ 4
{12}
20 км 3/3 1000 м
[Sc]
+8.6 +2.8 67 +6 +6 по сезону 1011.2 1007.3 +8.6 0.1
06 16.10 СЗ 2
{11}
20 км {ливн. осадки} 8/5 600 м
[St Ac lent]
+9.0 +3.3 67 +8 +8 по сезону 1014.4 1010.5 +6.7
09 16.10 СЗ 4
{12}
20 км 9/9 600 м
[Sc]
+9.4 +0.7 55 +7 +7 прохладно 1016.1 1012.1
12 16.10 СЗ 3
{11}
20 км 9/9 600 м
[Sc]
+9.3 +0.3 53 +7 +8 холодно 1017.6 1013.7
15 16.10 СЗ 1
{10}
20 км 8/3 600 м
[Sc Ac trans Cc]
+7.9 +1.0 62 +7 +7 прохладно 1018.8 1014.9 +10.6 0.0
18 16.10 З 1 20 км 9/4 600 м
[Sc Ac trans]
+8.3 +2.3 66 +8 +8 по сезону 1019.1 1015.2
21 16.10 З 1 20 км 9/8 600 м
[Sc Ac trans]
+9.1 +3.1 66 +9 +9 по сезону 1019.5 1015.6
00 17.10 З 2 20 км 9/9 600 м
[Sc]
+8.8 +4.7 75 +7 +7 по сезону 1019.8 1015.9
03 17.10 СЗ 1 20 км 9/9 600 м
[Sc]
+9.0 +5.4 78 +8 +8 по сезону 1019.5 1015.6 +7.4
06 17.10 З 2 20 км 1/0
[Ac trans]
+12.0 +6.6 70 +11 +13 тепло 1019.6 1015.7
09 17.10 ЮЗ 3 20 км 8/3 600 м
[Sc Ac trans]
+14.0 +9.2 73 +13 +15 тепло 1018.8 1014.9
12 17.10 З 2 20 км 9/9 600 м
[Sc]
+12.8 +10.1 84 +12 +12 по сезону 1018.3 1014.4
15 17.10 З 1 20 км 9/9 600 м
[Sc]
+12.4 +10.4 88 +12 +12 по сезону 1018.9 1015.0 +15.0
18 17.10 З 2 20 км 9/9 600 м
[Sc]
+13.8 +9.1 73 +13 +13 тепло 1020.6 1016.7
21 17.10 СЗ 3 20 км 9/9 600 м
[Sc]
+13.4 +9.7 78 +12 +12 тепло 1021.1 1017.2
00 18.10 С 3 20 км ясно +11.3 +9.2 87 +9 +9 тепло 1021.7 1017.8
03 18.10 СЗ 2 20 км ясно +9.5 +8.3 92 +8 +8 по сезону 1023.0 1019.1 +9.5
06 18.10 С 1 20 км ясно +11.5 +10.1 91 +11 +13 тепло 1024.2 1020.3 +8.9
09 18.10 Ю 1 4000 м дымка ясно +12.4 +10.0 85 +12 +19 тепло 1023.8 1019.9
12 18.10 ЮЗ 1 10 км 3/0
[Cs]
+14.3 +10.8 79 +15 +18 тепло 1022.7 1018.9
15 18.10 ЮЗ 1 10 км 3/0
[Ac trans Ci fib]
+12.0 +10.2 89 +12 +12 тепло 1022.3 1018.4 +14.4
18 18.10 З 1 4000 м дымка 3/0
[Ac trans]
+11.3 +10.3 94 +11 +11 тепло 1022.2 1018.3
21 18.10 ЮЗ 2 500 м туман ?/? +11.0 +10.2 95 +10 +10 тепло 1021.3 1017.4
00 19.10 З 1 1000 м в посл. час туман 9/9 600 м
[St]
+11.5 +10.8 95 +11 +11 тепло 1021.1 1017.2
03 19.10 З 1 200 м туман ?/? +12.1 +11.4 95 +12 +12 тепло 1020.7 1016.8 +10.8
06 19.10 ЮЗ 2 20 км в посл. час туман 10/10 300 м
[St]
+12.5 +11.8 95 +11 +11 тепло 1020.6 1016.7
09 19.10 ЮЗ 2 20 км 10/10 300 м
[St]
+13.4 +12.6 95 +13 +13 тепло 1020.1 1016.2
12 19.10 З 3 10 км 10/10 300 м
[St]
+14.3 +12.4 88 +13 +13 по сезону 1019.3 1015.4
15 19.10 З 3 4000 м дымка 10/10 300 м
[St]
+13.2 +12.0 92 +12 +12 тепло 1019.0 1015.1 +14.6
18 19.10 З 3 10 км 10/10 300 м
[St]
+12.6 +11.6 94 +11 +11 тепло 1018.8 1015.0
21 19.10 З 1 500 м туман ?/? +11.3 +10.5 95 +11 +11 тепло 1018.6 1014.7
00 20.10 З 1 200 м туман ?/? +11.5 +10.8 95 +11 +11 тепло 1018.4 1014.5
03 20.10 штиль 0 500 м туман {морось} ?/? +11.7 +11.1 96 +11 +11 тепло 1018.5 1014.6 +11.1 0.3
06 20.10 З 1 1000 м в посл. час туман {морось} 10/10 300 м
[St]
+11.8 +11.2 96 +12 +12 тепло 1019.0 1015.2
09 20.10 ЮЗ 2 2000 м в посл. час морось 10/10 200 м
[St]
+12.4 +11.5 94 +11 +11 по сезону 1019.2 1015.3
12 20.10 ЮЗ 2 1000 м слабая морось 10/10 200 м
[St]
+12.4 +11.6 95 +11 +11 по сезону 1018.9 1015.0
15 20.10 ЮЗ 1 1000 м слабая морось 10/10 200 м
[St]
+12.4 +11.7 95 +12 +12 тепло 1019.0 1015.1 +12.5 0.1
18 20.10 Ю 3 1000 м в посл. час морось 10/10 200 м
[St]
+12.2 +11.6 96 +10 +10 тепло 1019.0 1015.1
21 20.10 Ю 3 1000 м дымка 10/10 200 м
[St]
+12.1 +11.5 96 +10 +10 тепло 1018.4 1014.5
00 21.10 ЮЗ 1 10 км 9/9 600 м
[Sc]
+12.0 +11.3 95 +12 +12 тепло 1017.9 1014.0
03 21.10 штиль 0 4000 м дымка 10/10 300 м
[St]
+12.0 +11.3 95 +11 +11 тепло 1017.4 1013.5 +12.0 0.1
06 21.10 Ю 2 2000 м дымка 9/9 300 м
[St]
+12.6 +11.8 95 +12 +12 тепло 1017.3 1013.4
09 21.10 Ю 2 2000 м дымка 9/9 300 м
[St]
+13.2 +11.8 91 +12 +13 тепло 1016.8 1013.0
12 21.10 ЮЗ 3 10 км 9/9 600 м
[Sc]
+13.5 +11.1 85 +12 +12 по сезону 1015.4 1011.5
15 21.10 ЮЗ 2 4000 м дымка 9/9 300 м
[St]
+12.3 +10.9 91 +11 +11 по сезону 1015.0 1011.2 +14.9

 

Местоположение метеостанции Таганрог (Ростовская область, Россия): широта 47.20 долгота 38.90 высота над уровнем моря 32 м.

В архиве по умолчанию представлена погода в Таганроге за последнюю неделю. Архивные данные за месяц целиком и за предыдущие месяцы, начиная с января 2011 года, Вы можете получить, выбрав интересующий диапазон дат из раскрывающегося списка и нажав кнопку "Ввод!".

Внимание! Время в таблицах - всемирное. Для получения местного времени необходимо прибавить поправку, которая в Таганроге равна 3 ч.

Смотрите также архив погоды в соседних городах и на ближайших метеорологических станциях:

Погода в Маргаритово (Ростовская область, Россия) (30 км)
Погода в Матвеевом Кургане (Ростовская область, Россия) (41 км)
Погода в Ейске (Краснодарский край, Россия) (65 км)
Погода в Ростове-на-Дону (Ростовская область, Россия) (70 км)
Погода в Староминская (Краснодарский край, Россия) (75 км)
Погода в Кущевской (Краснодарский край, Россия) (92 км)
Погода в Должанке (Краснодарский край, Россия) (106 км)
Погода в Мариуполе (Донецкая область, Украина) (108 км)
Погода в Зерноград (Ростовская область, Россия) (114 км)
Погода в Шахтах (Ростовская область, Россия) (117 км)

Пояснения к столбцам:

Ветер - указаны скорость ветра в м/с - средняя за 10 мин, порывы в срок и между сроками (в фигурных скобках) и направление, откуда дует ветер: С - северный, СВ - северо-восточный, В - восточный, ЮВ - юго-восточный, Ю - южный, ЮЗ - юго-западный, З - западный, СЗ - северо-западный.
Видимость - горизонтальная дальность видимости в метрах или километрах. При видимости от 1 до 10 км при отсутствии осадков обычно наблюдается дымка, при ухудшении видимости до 1 км и менее - туман. В сухую погоду видимость может ухудшаться дымом, пылью или мглою.
Явления - указаны атмосферные явления, наблюдавшиеся в срок или в последний час перед сроком; фигурными скобками обозначены явления, наблюдавшиеся между сроками (за 1-3 часа до срока); квадратными скобками обозначены град или гололедные отложения с указанием их диаметра в мм.
Облачность - указаны через наклонную черту общая и нижняя облачность в баллах и высота нижней границы облаков в метрах; квадратными скобками обозначены формы облаков: Ci - перистые, Cs - перисто-слоистые, Cc - перисто-кучевые, Ac - высококучевые, As - высокослоистые, Sc - слоисто-кучевые, Ns - слоисто-дождевые, Cu - кучевые, Cb - кучево-дождевые. Подробнее классификацию облаков см. в Атласе облаков (PDF).
T - Температура воздуха - температура, измеренная на высоте 2 м над землей.
Td - Температура точки росы - температура, при понижении до которой содержащийся в воздухе водяной пар достигнет насыщения.
f - Относительная влажность воздуха - влажноcть воздуха, измеренная на высоте 2 м над землей.
Te - Эффективная температура - температура, которую ощущает одетый по сезону человек в тени. Характеристика душности погоды. При расчете учитывается влияние влажности воздуха и скорости ветра на теплоощущения человека.
Tes - Эффективная температура на солнце - температура, которую ощущает человек, с поправкой на солнечный нагрев. Характеристика знойности погоды. Зависит от высоты солнца над горизонтом, облачности и скорости ветра. Ночью, в пасмурную погоду, а также при ветре 12 м/с и более поправка равна нулю.
P - Атмосферное давление - приведенное к уровню моря атмосферное давление.
Po - Атмосферное давление - измеренное на уровне метеостанции атмосферное давление.
Tmin - Минимальная температура - минимум температуры воздуха на высоте 2 м над землей.
Tmax - Максимальная температура - максимум температуры воздуха на высоте 2 м над землей.
R - Количество осадков - Количество выпавших осадков за период времени, мм. При наведении курсора мыши на число - период времени, за который выпало указанное количество осадков.
R24 - Количество осадков - Количество выпавших осадков за 24 часа, мм.
S - Снежный покров - Высота снежного покрова, см. При наведении курсора мыши на число - состояние снежного покрова и степень покрытия местности в баллах.